Location: Ammerl�gen
(47.2167°N, 9.6000°E)
Time: 07:09:18
(UTC+00:00)

FENGYUN 1C DEB - Visible Passes

Search period start: 21 May 2022 00:00
Search period end: 31 May 2022 00:00
Orbit: 707 x 780 km, 99.9° (Epoch: 18 May)

Date Brightness Start Highest point End Pass type
(mag) Time Alt. Az. Time Alt. Az. Time Alt. Az.
21 May ? 00:06:42 24° SE 00:09:25 47° ENE 00:14:17 10° N visible
21 May ? 01:46:25 21° WSW 01:48:01 25° W 01:52:09 10° NW visible
21 May ? 23:22:51 10° ESE 23:26:38 22° ENE 23:30:28 10° N visible
22 May ? 01:02:33 34° SSW 01:04:34 60° WSW 01:09:36 10° NNW visible
22 May ? 22:43:10 10° ENE 22:44:05 10° NE 22:45:00 10° NE visible
23 May ? 00:18:40 26° SE 00:21:23 58° ENE 00:26:23 10° N visible
23 May ? 01:58:23 17° WSW 02:00:08 20° W 02:03:52 10° NW visible
23 May ? 23:34:46 12° ESE 23:38:29 26° ENE 23:42:40 10° N visible
24 May ? 01:14:29 30° SSW 01:16:34 48° WSW 01:21:30 10° NNW visible
24 May ? 22:53:42 10° ENE 22:55:50 13° NE 22:57:59 10° NNE visible
25 May ? 00:30:34 27° SSE 00:33:17 72° ENE 00:38:23 10° NNW visible
25 May ? 02:10:17 14° WSW 02:12:12 17° W 02:15:23 10° NW visible
25 May ? 23:46:37 14° ESE 23:50:16 32° ENE 23:54:45 10° N visible
26 May ? 01:26:21 26° SSW 01:28:31 39° W 01:33:18 10° NNW visible
26 May ? 23:04:41 10° E 23:07:31 15° NE 23:10:23 10° NNE visible
27 May ? 00:42:23 28° SSE 00:45:07 87° ENE 00:50:16 10° NNW visible
27 May ? 02:22:06 11° WSW 02:24:10 13° W 02:26:37 10° WNW visible
27 May ? 23:58:25 16° SE 00:02:00 38° ENE 00:06:42 10° N visible
28 May ? 01:38:07 22° SW 01:40:23 32° W 01:44:58 10° NW visible
28 May ? 23:15:47 10° E 23:19:09 18° NE 23:22:32 10° NNE visible
29 May ? 00:54:07 27° S 00:56:53 77° WSW 01:02:02 10° NNW visible
29 May ? 02:35:02 10° W 02:36:06 11° W 02:37:10 10° WNW visible
30 May ? 00:10:06 17° SE 00:13:39 46° ENE 00:18:33 10° N visible
30 May ? 01:49:49 19° SW 01:52:12 26° W 01:56:29 10° NW visible
30 May ? 23:26:55 10° ESE 23:30:42 22° ENE 23:34:30 10° N visible
